TimeMST,TemperatureF,Dew PointF,Humidity,Sea Level PressureIn,VisibilityMPH,Wind Direction,Wind SpeedMPH,Gust SpeedMPH,PrecipitationIn,Events,Conditions,WindDirDegrees,DateUTC
12:53 AM,36.0,25.0,64,30.25,10.0,SSE,8.1,-,N/A,,Clear,150,2011-12-27 07:53:00
1:53 AM,36.0,23.0,59,30.25,10.0,SE,8.1,-,N/A,,Clear,140,2011-12-27 08:53:00
2:53 AM,37.0,21.9,54,30.23,10.0,SE,8.1,-,N/A,,Clear,140,2011-12-27 09:53:00
3:53 AM,39.0,19.9,46,30.22,10.0,SE,5.8,-,N/A,,Clear,130,2011-12-27 10:53:00
4:53 AM,36.0,21.0,55,30.22,10.0,SSE,8.1,-,N/A,,Clear,150,2011-12-27 11:53:00
5:53 AM,37.0,19.9,50,30.22,10.0,SE,9.2,-,N/A,,Clear,140,2011-12-27 12:53:00
6:53 AM,34.0,21.0,59,30.24,10.0,SE,9.2,-,N/A,,Clear,140,2011-12-27 13:53:00
7:53 AM,34.0,21.0,59,30.24,10.0,SSE,9.2,-,N/A,,Clear,150,2011-12-27 14:53:00
8:53 AM,42.1,19.0,40,30.24,10.0,SSE,9.2,-,N/A,,Clear,150,2011-12-27 15:53:00
9:53 AM,48.0,17.1,29,30.24,10.0,SSE,5.8,-,N/A,,Clear,160,2011-12-27 16:53:00
10:53 AM,54.0,16.0,22,30.22,10.0,South,4.6,-,N/A,,Clear,170,2011-12-27 17:53:00
11:53 AM,59.0,14.0,17,30.17,10.0,Calm,Calm,-,N/A,,Clear,0,2011-12-27 18:53:00
12:53 PM,62.1,12.0,14,30.14,10.0,Calm,Calm,-,N/A,,Clear,0,2011-12-27 19:53:00
1:53 PM,64.0,14.0,14,30.14,10.0,North,5.8,-,N/A,,Clear,350,2011-12-27 20:53:00
2:53 PM,66.2,10.4,11,30.17,10.0,West,3.5,-,N/A,,Clear,280,2011-12-27 21:53:00
3:53 PM,64.9,19.0,17,30.13,10.0,WSW,6.9,-,N/A,,Clear,250,2011-12-27 22:53:00
4:53 PM,62.1,19.9,20,30.14,10.0,West,3.5,-,N/A,,Clear,280,2011-12-27 23:53:00
5:53 PM,57.9,19.9,23,30.17,10.0,Calm,Calm,-,N/A,,Clear,0,2011-12-28 00:53:00
6:53 PM,55.0,21.9,28,30.20,10.0,Calm,Calm,-,N/A,,Clear,0,2011-12-28 01:53:00
7:53 PM,48.9,24.1,38,30.22,10.0,SW,4.6,-,N/A,,Clear,220,2011-12-28 02:53:00
8:53 PM,46.0,26.1,46,30.22,10.0,SE,3.5,-,N/A,,Clear,140,2011-12-28 03:53:00
9:53 PM,41.0,27.0,57,30.22,10.0,SE,5.8,-,N/A,,Clear,140,2011-12-28 04:53:00
10:53 PM,39.9,27.0,60,30.23,10.0,Calm,Calm,-,N/A,,Clear,0,2011-12-28 05:53:00
11:53 PM,39.0,26.1,60,30.23,10.0,SSE,3.5,-,N/A,,Clear,150,2011-12-28 06:53:00